IBUKIYAMA Weather Reports


time (UTC)temp
C
wind
direction
speed
KPH
gust
KPH
rain 1hr
cm
rain 24hr
cm
rain mn
cm
humidity
%
barometer
mb
20260508023032 12 295 12.9 20.9 0.00 0.00 0.00 100 869.5
20260508022033 12 309 6.4 24.1 0.00 0.00 0.00 100 869.7
20260508021017 12 359 8.0 24.1 0.00 0.00 0.00 100 869.6
20260508020043 12 308 4.8 19.3 0.00 0.00 0.00 100 869.8
20260508015046 12 304 20.9 30.6 0.00 0.00 0.00 100 869.9
20260508014021 12 359 16.1 30.6 0.00 0.00 0.00 100 869.7
20260508013025 12 303 11.3 20.9 0.00 0.00 0.00 100 869.7
20260508012026 12 298 6.4 19.3 0.00 0.00 0.00 100 869.8
20260508011029 12 289 9.7 22.5 0.00 0.00 0.00 100 869.9
20260508010044 12 293 14.5 25.7 0.00 0.00 0.00 100 870.1
20260508005034 12 359 9.7 17.7 0.00 0.00 0.00 100 870.2
20260508004104 12 326 11.3 24.1 0.00 0.00 0.00 100 870.2
20260508003017 12 359 14.5 25.7 0.00 0.00 0.00 100 870.5
20260508002040 12 276 6.4 17.7 0.00 0.00 0.00 100 870.6
20260508001022 12 359 8.0 17.7 0.00 0.00 0.00 100 870.4
20260508000029 12 303 11.3 24.1 0.00 0.00 0.00 100 870.3
20260507235026 12 305 9.7 19.3 0.00 0.00 0.00 100 870.4
20260507234030 12 359 9.7 19.3 0.00 0.00 0.00 100 870.7
20260507233034 12 359 9.7 24.1 0.00 0.00 0.00 100 870.5
20260507232039 12 279 11.3 20.9 0.00 0.00 0.00 100 870.5
20260507231034 12 297 6.4 19.3 0.00 0.00 0.00 100 870.3
20260507230016 12 359 9.7 17.7 0.00 0.00 0.00 100 870.4
20260507225017 12 288 8.0 20.9 0.00 0.00 0.00 100 870.5
20260507224041 12 359 9.7 17.7 0.00 0.00 0.00 100 870.8
20260507223016 12 359 4.8 19.3 0.00 0.00 0.00 100 871.0
20260507222021 12 279 8.0 19.3 0.00 0.00 0.00 100 871.0
20260507221026 12 359 8.0 19.3 0.00 0.00 0.00 100 871.0
20260507220021 12 359 9.7 16.1 0.00 0.00 0.00 100 871.0
20260507215026 12 301 4.8 19.3 0.00 0.00 0.00 100 871.2
20260507214028 12 359 8.0 17.7 0.00 0.00 0.00 100 871.2
20260507213050 12 274 11.3 24.1 0.00 0.00 0.00 100 871.2
20260507212033 12 359 8.0 20.9 0.00 0.00 0.00 100 871.1
20260507211037 12 272 9.7 19.3 0.00 0.00 0.00 100 871.0
20260507210033 12 359 8.0 20.9 0.00 0.00 0.00 100 871.0
20260507205015 12 295 9.7 20.9 0.00 0.00 0.00 100 871.2
20260507204040 12 359 9.7 19.3 0.00 0.00 0.00 100 871.0
20260507203015 12 359 11.3 19.3 0.00 0.00 0.00 100 871.1
20260507202019 12 296 6.4 19.3 0.00 0.00 0.00 100 871.1
20260507201042 12 0.0 19.3 0.00 0.00 0.00 100 871.0
20260507200025 12 272 9.7 19.3 0.00 0.00 0.00 100 871.2
20260507195025 12 280 6.4 16.1 0.00 0.00 0.00 100 871.1
20260507194016 12 359 8.0 19.3 0.00 0.00 0.00 100 871.1
20260507193018 12 291 9.7 20.9 0.00 0.00 0.00 100 871.2
20260507192018 12 330 6.4 20.9 0.00 0.00 0.00 100 871.2
20260507191020 12 359 9.7 19.3 0.00 0.00 0.00 100 871.3
20260507190045 12 0.0 19.3 0.00 0.00 0.00 100 871.3
20260507185018 12 293 11.3 22.5 0.00 0.00 0.00 100 871.3
20260507184019 12 271 8.0 20.9 0.00 0.00 0.00 100 871.4
20260507183025 12 359 8.0 22.5 0.00 0.00 0.00 100 871.5
20260507182019 12 279 9.7 19.3 0.00 0.00 0.00 100 871.6
20260507181021 12 326 3.2 17.7 0.00 0.00 0.00 100 871.5
20260507180022 12 270 6.4 17.7 0.00 0.00 0.00 100 871.6
20260507175025 12 359 9.7 14.5 0.00 0.00 0.00 100 871.5
20260507174047 12 359 8.0 20.9 0.00 0.00 0.00 100 871.4
20260507173028 12 265 9.7 19.3 0.00 0.00 0.00 100 871.6
20260507172022 12 359 8.0 19.3 0.00 0.00 0.00 100 871.6
20260507171026 12 359 4.8 14.5 0.00 0.00 0.00 100 871.6
20260507170027 12 359 4.8 14.5 0.00 0.00 0.00 100 871.8
20260507165029 12 359 6.4 16.1 0.00 0.00 0.00 100 871.8
20260507164021 12 285 8.0 17.7 0.00 0.00 0.00 100 871.9
20260507163020 12 285 9.7 17.7 0.00 0.00 0.00 100 872.2
20260507162020 12 359 6.4 20.9 0.00 0.00 0.00 100 872.2
20260507161019 12 359 8.0 19.3 0.00 0.00 0.00 100 872.3
20260507160040 12 359 3.2 9.7 0.00 0.00 0.00 100 872.5
20260507155020 12 310 4.8 11.3 0.00 0.00 0.00 100 872.4
20260507154042 12 359 3.2 8.0 0.00 0.00 0.00 100 872.6
20260507153016 12 30 3.2 8.0 0.00 0.00 0.00 100 872.6
20260507152018 12 359 1.6 9.7 0.00 0.00 0.00 100 872.6
20260507151041 12 296 3.2 9.7 0.00 0.00 0.00 100 872.7
20260507150018 12 359 4.8 14.5 0.00 0.00 0.00 100 872.7
20260507145040 12 359 4.8 14.5 0.00 0.00 0.00 100 872.7
20260507144023 12 359 8.0 17.7 0.00 0.00 0.00 100 872.7
20260507143015 12 299 9.7 20.9 0.00 0.00 0.00 100 873.1
20260507142018 12 281 9.7 17.7 0.00 0.00 0.00 100 873.2
20260507141022 12 359 11.3 20.9 0.00 0.00 0.00 100 873.3
20260507140028 12 359 12.9 20.9 0.00 0.00 0.00 99 873.3
20260507135023 12 359 11.3 22.5 0.00 0.00 0.00 99 873.4
20260507134029 12 359 8.0 14.5 0.00 0.00 0.00 96 873.4
20260507133034 12 276 4.8 16.1 0.00 0.00 0.00 91 873.5
20260507132039 12 359 8.0 17.7 0.00 0.00 0.00 89 873.5
20260507131016 12 359 4.8 14.5 0.00 0.00 0.00 93 873.6
20260507130020 12 359 8.0 14.5 0.00 0.00 0.00 91 873.7
20260507125024 12 359 8.0 16.1 0.00 0.00 0.00 93 873.7
20260507124051 12 359 6.4 12.9 0.00 0.00 0.00 93 873.8
20260507123027 12 359 6.4 17.7 0.00 0.00 0.00 93 873.9
20260507122031 12 359 4.8 9.7 0.00 0.00 0.00 93 873.8
20260507121015 13 359 4.8 9.7 0.00 0.00 0.00 91 873.9
20260507120041 13 283 1.6 9.7 0.00 0.00 0.00 90 874.0
20260507115019 13 359 4.8 9.7 0.00 0.00 0.00 89 874.0
20260507114044 13 272 4.8 9.7 0.00 0.00 0.00 88 873.9
20260507113028 13 298 4.8 9.7 0.00 0.00 0.00 88 873.9
20260507112032 13 306 4.8 11.3 0.00 0.00 0.00 87 873.7
20260507111037 13 359 3.2 8.0 0.00 0.00 0.00 89 873.7